When you browse on this site, cookies collect data to enhance your experience and personalize the content and advertising you see.
Visit our Privacy Policy to learn more. By continuing to use the site, you agree to this use of cookies and data.
  • în România
  • Lista ţărilor
  • Pe 7 zile
  • Temperatura apei
  • Hartă satelitară
  • Meteo pe hartă
  • Widget-uri
  • user-avatar
    Intrare

    Meteo pe oră la Hangal

    Astăzi, 16 Iulie, Marţi

    Timp Temperatura Precipitaţii Vânt Presiune Umiditate
    00:00 +25°C° 0 mm 3 m/s 708 mmHg 88%
    01:00 +24°C° 0 mm 3 m/s 708 mmHg 89%
    02:00 +24°C° 0 mm 3 m/s 707 mmHg 91%
    03:00 +24°C° 0 mm 3 m/s 707 mmHg 92%
    04:00 +24°C° 0 mm 3 m/s 707 mmHg 93%
    05:00 +24°C° 0 mm 3 m/s 707 mmHg 93%
    06:00 +25°C° 0 mm 3 m/s 708 mmHg 88%
    07:00 +26°C° 0 mm 3 m/s 709 mmHg 83%
    08:00 +26°C° 0 mm 4 m/s 709 mmHg 77%
    09:00 +28°C° 0 mm 4 m/s 709 mmHg 72%
    10:00 +29°C° 0 mm 4 m/s 709 mmHg 66%
    11:00 +30°C° 0 mm 5 m/s 709 mmHg 60%
    12:00 +32°C° 0 mm 5 m/s 709 mmHg 59%
    13:00 +33°C° 0 mm 6 m/s 709 mmHg 57%
    14:00 +33°C° 0 mm 6 m/s 708 mmHg 55%
    15:00 +32°C° 0.3 mm 6 m/s 708 mmHg 59%
    16:00 +30°C° 0.3 mm 6 m/s 707 mmHg 63%
    17:00 +29°C° 0.3 mm 6 m/s 707 mmHg 68%
    18:00 +28°C° 0 mm 5 m/s 708 mmHg 73%
    19:00 +27°C° 0 mm 5 m/s 708 mmHg 78%
    20:00 +26°C° 0 mm 4 m/s 709 mmHg 83%
    21:00 +25°C° 0 mm 4 m/s 709 mmHg 84%
    22:00 +25°C° 0 mm 4 m/s 709 mmHg 85%
    23:00 +25°C° 0 mm 4 m/s 709 mmHg 87%

    Mâine, 17 Iulie, Miercuri

    Timp Temperatura Precipitaţii Vânt Presiune Umiditate
    00:00 +25°C° 0 mm 3 m/s 708 mmHg 87%
    01:00 +24°C° 0 mm 3 m/s 708 mmHg 88%
    02:00 +24°C° 0 mm 3 m/s 708 mmHg 89%
    03:00 +24°C° 0 mm 3 m/s 707 mmHg 89%
    04:00 +24°C° 0 mm 3 m/s 707 mmHg 90%
    05:00 +24°C° 0 mm 3 m/s 707 mmHg 90%
    06:00 +25°C° 0 mm 3 m/s 708 mmHg 87%
    07:00 +25°C° 0 mm 3 m/s 708 mmHg 83%
    08:00 +26°C° 0 mm 3 m/s 709 mmHg 80%
    09:00 +27°C° 0 mm 3 m/s 709 mmHg 74%
    10:00 +29°C° 0 mm 4 m/s 709 mmHg 67%
    11:00 +30°C° 0 mm 4 m/s 709 mmHg 61%
    12:00 +30°C° 0.3 mm 4 m/s 708 mmHg 60%
    13:00 +32°C° 0.3 mm 5 m/s 708 mmHg 59%
    14:00 +32°C° 0.3 mm 5 m/s 707 mmHg 57%
    15:00 +30°C° 0.4 mm 6 m/s 707 mmHg 61%
    16:00 +30°C° 0.4 mm 6 m/s 707 mmHg 64%
    17:00 +29°C° 0.4 mm 6 m/s 707 mmHg 68%
    18:00 +28°C° 0 mm 5 m/s 707 mmHg 73%
    19:00 +27°C° 0 mm 5 m/s 708 mmHg 78%
    20:00 +26°C° 0 mm 5 m/s 708 mmHg 82%
    21:00 +25°C° 0 mm 4 m/s 708 mmHg 83%
    22:00 +25°C° 0 mm 4 m/s 708 mmHg 84%
    23:00 +23°C° 0 mm 4 m/s 708 mmHg 85%

    Poimâine, 18 Iulie, Joi

    Timp Temperatura Precipitaţii Vânt Presiune Umiditate
    00:00 +24°C° 0 mm 3 m/s 708 mmHg 86%
    01:00 +24°C° 0 mm 3 m/s 707 mmHg 86%
    02:00 +24°C° 0 mm 3 m/s 707 mmHg 86%
    03:00 +24°C° 0 mm 3 m/s 707 mmHg 87%
    04:00 +23°C° 0 mm 2 m/s 706 mmHg 89%
    05:00 +23°C° 0 mm 2 m/s 706 mmHg 90%
    06:00 +24°C° 0 mm 2 m/s 707 mmHg 86%
    07:00 +25°C° 0 mm 3 m/s 707 mmHg 82%
    08:00 +26°C° 0 mm 3 m/s 708 mmHg 78%
    09:00 +27°C° 0 mm 4 m/s 708 mmHg 71%
    10:00 +29°C° 0 mm 4 m/s 708 mmHg 65%
    11:00 +30°C° 0 mm 5 m/s 708 mmHg 59%
    12:00 +30°C° 0.6 mm 5 m/s 707 mmHg 60%
    13:00 +30°C° 0.6 mm 5 m/s 707 mmHg 61%
    14:00 +30°C° 0.6 mm 6 m/s 706 mmHg 62%
    15:00 +30°C° 0.3 mm 6 m/s 706 mmHg 65%
    16:00 +29°C° 0.3 mm 6 m/s 706 mmHg 68%
    17:00 +28°C° 0.3 mm 6 m/s 705 mmHg 71%
    18:00 +27°C° 0 mm 5 m/s 706 mmHg 75%
    19:00 +26°C° 0 mm 5 m/s 706 mmHg 79%
    20:00 +25°C° 0 mm 4 m/s 707 mmHg 83%
    21:00 +25°C° 0 mm 4 m/s 707 mmHg 85%
    22:00 +25°C° 0 mm 4 m/s 707 mmHg 86%
    23:00 +23°C° 0 mm 4 m/s 707 mmHg 87%

    19 Iulie, Vineri

    Timp Temperatura Precipitaţii Vânt Presiune Umiditate
    00:00 +23°C° 0 mm 4 m/s 706 mmHg 88%
    01:00 +24°C° 0 mm 3 m/s 706 mmHg 89%
    02:00 +24°C° 0 mm 3 m/s 706 mmHg 90%
    03:00 +24°C° 0 mm 3 m/s 706 mmHg 91%
    04:00 +22°C° 0 mm 3 m/s 706 mmHg 92%
    05:00 +22°C° 0 mm 3 m/s 706 mmHg 92%
    06:00 +24°C° 0 mm 3 m/s 706 mmHg 88%
    07:00 +25°C° 0 mm 3 m/s 706 mmHg 84%
    08:00 +26°C° 0 mm 3 m/s 707 mmHg 80%
    09:00 +27°C° 0 mm 3 m/s 707 mmHg 74%
    10:00 +29°C° 0 mm 4 m/s 707 mmHg 67%
    11:00 +30°C° 0 mm 4 m/s 707 mmHg 61%
    12:00 +32°C° 0.1 mm 4 m/s 707 mmHg 60%
    13:00 +32°C° 0.1 mm 4 m/s 706 mmHg 59%
    14:00 +32°C° 0.1 mm 4 m/s 705 mmHg 59%
    15:00 +30°C° 0.4 mm 5 m/s 705 mmHg 62%
    16:00 +30°C° 0.4 mm 5 m/s 705 mmHg 66%
    17:00 +29°C° 0.4 mm 5 m/s 704 mmHg 70%
    18:00 +28°C° 0.1 mm 5 m/s 705 mmHg 74%
    19:00 +27°C° 0.1 mm 5 m/s 705 mmHg 79%
    20:00 +26°C° 0.1 mm 5 m/s 706 mmHg 83%
    21:00 +25°C° 0 mm 4 m/s 706 mmHg 84%
    22:00 +25°C° 0 mm 4 m/s 706 mmHg 85%
    23:00 +25°C° 0 mm 4 m/s 706 mmHg 86%

    20 Iulie, Sâmbătă

    Timp Temperatura Precipitaţii Vânt Presiune Umiditate
    00:00 +25°C° 0 mm 4 m/s 706 mmHg 86%
    01:00 +25°C° 0 mm 4 m/s 705 mmHg 87%
    02:00 +23°C° 0 mm 4 m/s 705 mmHg 87%
    03:00 +24°C° 0 mm 3 m/s 705 mmHg 88%
    04:00 +24°C° 0 mm 3 m/s 705 mmHg 89%
    05:00 +24°C° 0 mm 3 m/s 705 mmHg 89%
    06:00 +24°C° 0.2 mm 3 m/s 706 mmHg 88%
    07:00 +25°C° 0.2 mm 3 m/s 706 mmHg 87%
    08:00 +25°C° 0.2 mm 2 m/s 706 mmHg 85%
    09:00 +25°C° 0 mm 3 m/s 706 mmHg 83%
    10:00 +26°C° 0 mm 3 m/s 707 mmHg 81%
    11:00 +26°C° 0 mm 3 m/s 707 mmHg 79%
    12:00 +27°C° 0 mm 4 m/s 706 mmHg 76%
    13:00 +28°C° 0 mm 4 m/s 706 mmHg 72%
    14:00 +29°C° 0 mm 4 m/s 705 mmHg 69%
    15:00 +29°C° 0.6 mm 4 m/s 705 mmHg 70%
    16:00 +28°C° 0.6 mm 5 m/s 705 mmHg 71%
    17:00 +28°C° 0.6 mm 5 m/s 705 mmHg 72%
    18:00 +27°C° 0.1 mm 4 m/s 705 mmHg 77%
    19:00 +26°C° 0.1 mm 4 m/s 705 mmHg 82%
    20:00 +25°C° 0.1 mm 4 m/s 706 mmHg 86%
    21:00 +25°C° 0 mm 4 m/s 706 mmHg 87%
    22:00 +25°C° 0 mm 4 m/s 706 mmHg 88%
    23:00 +25°C° 0 mm 4 m/s 706 mmHg 90%

    21 Iulie, Duminică

    Timp Temperatura Precipitaţii Vânt Presiune Umiditate
    00:00 +25°C° 0 mm 4 m/s 705 mmHg 89%
    01:00 +23°C° 0 mm 4 m/s 705 mmHg 89%
    02:00 +23°C° 0 mm 4 m/s 704 mmHg 89%
    03:00 +24°C° 0 mm 3 m/s 704 mmHg 90%
    04:00 +24°C° 0 mm 3 m/s 704 mmHg 90%
    05:00 +24°C° 0 mm 3 m/s 704 mmHg 91%
    06:00 +25°C° 0 mm 3 m/s 705 mmHg 87%
    07:00 +25°C° 0 mm 3 m/s 705 mmHg 84%
    08:00 +26°C° 0 mm 3 m/s 706 mmHg 81%
    09:00 +27°C° 0.1 mm 4 m/s 706 mmHg 76%
    10:00 +28°C° 0.1 mm 4 m/s 706 mmHg 71%
    11:00 +29°C° 0.1 mm 4 m/s 706 mmHg 66%
    12:00 +29°C° 1 mm 4 m/s 706 mmHg 67%
    13:00 +30°C° 1 mm 4 m/s 705 mmHg 68%
    14:00 +30°C° 1 mm 5 m/s 704 mmHg 68%
    15:00 +29°C° 1.5 mm 5 m/s 704 mmHg 72%
    16:00 +28°C° 1.5 mm 5 m/s 704 mmHg 75%
    17:00 +27°C° 1.5 mm 6 m/s 704 mmHg 78%
    18:00 +27°C° 0.1 mm 5 m/s 704 mmHg 81%
    19:00 +26°C° 0.1 mm 5 m/s 705 mmHg 84%
    20:00 +25°C° 0.1 mm 5 m/s 705 mmHg 87%
    21:00 +25°C° 0 mm 5 m/s 705 mmHg 88%
    22:00 +25°C° 0 mm 4 m/s 705 mmHg 89%
    23:00 +23°C° 0 mm 4 m/s 706 mmHg 89%
    Arată mai mult